Regional Weather Roundup
Issued by NWS Green Bay, WI

Home | Current Version | Previous Version | Graphics & Text | Print | Product List | Glossary Off
Versions: 1 2 3 4 5 6 7 8 9 10 11 12 13 14 15 16 17 18 19 20 21 22 23 24 25 26 27 28 29 30 31 32 33 34 35 36 37 38 39 40 41 42 43 44 45 46 47 48 49 50

000
ASUS43 KGRB 310410
RWRGRB

NORTH-CENTRAL AND NORTHEAST WISCONSIN REGIONAL WEATHER ROUNDUP
NATIONAL WEATHER SERVICE GREEN BAY WI
1100 PM CDT SAT AUG 30 2014

WIZ005-009-010>012-018-019-310500-
NORTH CENTRAL WISCONSIN

CITY           SKY/WX    TMP DP  RH WIND       PRES   REMARKS
IRONWOOD       NOT AVBL
MANITOWISH WTR MOCLDY    55  55 100 CALM      29.93S
ARBOR VITAE    MOCLDY    57  55  92 CALM      29.93S
EAGLE RIVER    CLOUDY    55  55 100 CALM      29.93R
LAND O LAKES   CLOUDY    57  56  95 CALM      29.94S
RHINELANDER    CLOUDY    58  56  93 CALM      29.94R
PHILLIPS       CLOUDY    59  56  91 N3        29.94R
ANTIGO         CLOUDY    59  57  94 N5        29.93R
TOMAHAWK       CLOUDY    58  55  89 CALM      29.93S
MERRILL        MOCLDY    58  57  95 N3        29.93R
$$

WIZ013-073-310500-
NORTHEAST WISCONSIN

CITY           SKY/WX    TMP DP  RH WIND       PRES   REMARKS
IRON MOUNTAIN  CLOUDY    60  57  89 NW7       29.88R
MARINETTE      MOCLDY    61  57  88 NW3       29.87S
OCONTO         MOCLDY    62  61  97 N3        29.88S
$$

WIZ017-030-035>037-045-310500-
CENTRAL WISCONSIN

CITY           SKY/WX    TMP DP  RH WIND       PRES   REMARKS
MEDFORD        MOCLDY    57  56  95 NE3       29.93R
WAUSAU         CLOUDY    63  58  83 N3        29.90R
MOSINEE        CLOUDY    63  61  94 CALM      29.92S
MARSHFIELD     CLOUDY    65  60  84 NE3       29.91R
WISC RAPIDS    CLOUDY    66  62  87 N3        29.92S
STEVENS POINT  CLOUDY    63  60  91 CALM      29.92R
WAUPACA        MOCLDY    66  64  91 CALM      29.91R
SHAWANO        CLOUDY    66  62  86 N5        29.90R
CLINTONVILLE   CLOUDY    64  61  88 N5        29.89S
$$

WIZ038-039-048-051-310500-
FOX VALLEY

CITY           SKY/WX    TMP DP  RH WIND       PRES   REMARKS
NWS GREEN BAY  CLOUDY    66  63  90 N6        29.89R
APPLETON       MOCLDY    64  63  94 N5        29.89S
OSHKOSH        MOCLDY    67  64  90 N6        29.89R
FOND DU LAC    CLEAR     68  64  87 N3        29.90R
$$

WIZ022-050-052-310500-
EAST CENTRAL WISCONSIN

CITY           SKY/WX    TMP DP  RH WIND       PRES   REMARKS
STURGEON BAY   CLOUDY    63  57  82 NW9       29.89R
MANITOWOC      CLOUDY    68  66  93 VRB3      29.89R
SHEBOYGAN      CLEAR     66  64  93 CALM      29.88S
$$

LMZ563-521-522-541>543-310500-
LAKESHORE

STATION/POSITION TIME  TEMP    WIND        PRES    VSBY  WAVE
                       AIR SEA DIR/SP/G                  HT/PER
                 (UTC) (F)     (DEG/KT/KT) (MB)    (MI)  (FT/S)
SHEBOYGAN LKSHOR 0400   69 51  330/  5/  6 1011.8R
KEWAUNEE LKSHORE 0400   65     340/  6/ 12 1011.1R
TWO RIVERS CG    0300      72              1011.7          2
NORTHPORT PIER   0400   64     310/ 14/ 20 1011.2S
N MID LAKE BUOY  0400   63 65  300/ 16/ 19 1010.1R         3/ 4
S GREEN BAY BUOY 0400   66     VRB 14/ 17  1012.9R
SISTER BAY LKSHO 0400   64     330/ 17/ 19   N/A
CHAMBERS ISLAND  0400   64     300/  6/ 11 1011.9R
MENOMINEE LKSHOR 0400   63     280/  4/  8 1012.4R
$$


USA.gov is the U.S. government's official web portal to all federal, state and local government web resources and services.